Tracking 17560 objects as of 11-February-2016
HD Live streaming from Space Station
objects crossing your sky now

OXP 1

Track OXP 1 now!
10-day predictions
OXP 1 is classified as:


NORAD ID: 22489
Int'l Code: 1993-009A
Perigee: 720.8 km
Apogee: 779.1 km
Inclination: 25.0 °
Period: 99.7 minutes
Semi major axis: 7120 km
RCS: 1.9581 m2 (large)
Launch date: February 9, 1993
Source: United States (US)
Launch site: AIR FORCE EASTERN TEST RANGE (AFETR)
Your satellite tracking list
Your tracking list is empty





NASA's NSSDC Master Catalog

Two Line Element Set (TLE):
1 22489U 93009A   16041.52004145  .00000403  00000-0  61518-4 0  9991
2 22489  24.9652 104.2447 0040981 172.5570 187.5552 14.4476263621421
Source of the keplerian elements: AFSPC

N2YO: 441